TimeAKDT,TemperatureF,Dew PointF,Humidity,Sea Level PressureIn,VisibilityMPH,Wind Direction,Wind SpeedMPH,Gust SpeedMPH,PrecipitationIn,Events,Conditions,WindDirDegrees,DateUTC
12:58 AM,32.0,28.9,88,30.33,10.0,North,10.4,-,N/A,,Clear,350,2012-10-08 08:58:00
1:58 AM,32.0,28.9,88,30.33,10.0,NNW,12.7,-,N/A,,Clear,340,2012-10-08 09:58:00
2:58 AM,30.9,28.0,89,30.34,10.0,NNW,10.4,-,N/A,,Clear,340,2012-10-08 10:58:00
3:58 AM,28.9,28.0,96,30.35,10.0,North,9.2,-,N/A,,Clear,350,2012-10-08 11:58:00
4:58 AM,28.9,27.0,92,30.35,10.0,NNW,9.2,-,N/A,,Clear,340,2012-10-08 12:58:00
5:58 AM,27.0,26.1,96,30.36,10.0,NNW,11.5,-,N/A,,Clear,330,2012-10-08 13:58:00
6:58 AM,27.0,26.1,96,30.37,10.0,North,6.9,-,N/A,,Clear,350,2012-10-08 14:58:00
7:58 AM,28.0,27.0,96,30.38,10.0,NNW,10.4,-,N/A,,Clear,340,2012-10-08 15:58:00
8:58 AM,27.0,27.0,100,30.39,10.0,NNW,9.2,-,N/A,,Clear,340,2012-10-08 16:58:00
9:58 AM,28.0,28.0,100,30.40,10.0,NNW,11.5,-,N/A,,Clear,330,2012-10-08 17:58:00
10:58 AM,28.9,28.0,96,30.41,9.0,NNW,13.8,-,N/A,,Clear,330,2012-10-08 18:58:00
11:58 AM,32.0,30.0,92,30.44,9.0,North,5.8,-,N/A,,Clear,350,2012-10-08 19:58:00
12:58 PM,35.1,30.0,82,30.44,9.0,North,11.5,-,N/A,,Clear,350,2012-10-08 20:58:00
1:58 PM,36.0,28.9,76,30.45,9.0,North,12.7,-,N/A,,Clear,350,2012-10-08 21:58:00
2:58 PM,36.0,28.0,73,30.46,9.0,North,17.3,21.9,N/A,,Clear,350,2012-10-08 22:58:00
3:58 PM,37.0,28.0,70,30.46,9.0,North,13.8,23.0,N/A,,Clear,360,2012-10-08 23:58:00
4:58 PM,36.0,26.1,67,30.46,9.0,North,15.0,21.9,N/A,,Clear,360,2012-10-09 00:58:00
5:58 PM,35.1,27.0,72,30.46,9.0,North,11.5,20.7,N/A,,Clear,350,2012-10-09 01:58:00
6:58 PM,34.0,26.1,73,30.48,9.0,North,9.2,-,N/A,,Clear,360,2012-10-09 02:58:00
9:58 PM,32.0,26.1,79,30.49,10.0,North,9.2,-,N/A,,Clear,10,2012-10-09 05:58:00
10:58 PM,30.9,26.1,82,30.50,10.0,North,6.9,-,N/A,,Clear,360,2012-10-09 06:58:00
11:58 PM,30.0,26.1,85,30.50,10.0,NNW,6.9,-,N/A,,Clear,340,2012-10-09 07:58:00